Date String (YYYY-MM-DD hh:mm:ss) UTC,Instrument flags,Ambient pressure (hPa),Sample flow (lpm),Bypass flow (lpm),Sample temperature (°C),Ambient temperature (°C),ASC tube jacket temperature (°C),LED temperature (°C),Box temperature (°C),Sample RH (%),Span deviation,Mass concentration (μg/m³),Mass concentration (μg/m³),Mass concentration (μg/m³)
DateTimeUTC,F1_M11,P_M11,Q1_M11,Q2_M11,T1_M11,T2_M11,T3_M11,T4_M11,T5_M11,U1_M11,ZSPAN_M11,X0_M11,X2_M11,X1_M11
2022-10-07 02:00:00,,0834.1,5.01,0.00,29.7,28.0,00.0,38.4,31.4,16.1,0001.2,0010.94,0004.95,0004.32
2022-10-07 02:01:00,,0834.1,4.99,0.00,29.7,28.1,00.0,38.4,31.5,16.3,0001.2,0010.79,0004.97,0004.31
2022-10-07 02:02:00,,0834.1,5.01,0.00,29.7,28.2,00.0,38.4,31.5,15.8,0000.4,0010.83,0004.93,0004.28
2022-10-07 02:03:00,,0834.1,4.99,0.00,29.7,28.3,00.0,38.4,31.5,16.5,0000.1,0011.36,0004.93,0004.26
2022-10-07 02:04:00,,0834.1,5.00,0.00,29.7,28.4,00.0,38.4,31.6,16.3,0000.0,0011.63,0004.95,0004.26
2022-10-07 02:05:00,,0834.1,4.99,0.00,29.7,28.4,00.0,38.4,31.6,16.2,0000.0,0011.99,0004.98,0004.26
2022-10-07 02:06:00,,0834.1,5.01,0.00,29.7,28.5,00.0,38.4,31.6,16.2,0000.0,0012.60,0004.96,0004.25
2022-10-07 02:07:00,,0834.1,4.99,0.00,29.7,28.6,00.0,38.5,31.7,16.0,0000.0,0012.88,0004.96,0004.24
2022-10-07 02:08:00,,0834.3,5.01,0.00,29.8,28.6,00.0,38.5,31.7,16.2,0000.0,0012.57,0004.96,0004.22
2022-10-07 02:09:00,,0834.3,4.99,0.00,29.8,28.6,00.0,38.5,31.7,16.6,0000.0,0012.50,0004.93,0004.21
2022-10-07 02:10:00,,0834.3,5.01,0.00,29.8,28.7,00.0,38.5,31.7,16.4,0000.0,0012.22,0004.94,0004.21
2022-10-07 02:11:00,,0834.3,5.00,0.00,29.8,28.7,00.0,38.5,31.8,16.5,0000.0,0011.99,0004.93,0004.22
2022-10-07 02:12:00,,0834.3,5.00,0.00,29.9,28.7,00.0,38.5,31.8,16.2,0000.0,0012.27,0004.88,0004.22
2022-10-07 02:13:00,,0834.3,5.01,0.00,29.9,28.8,00.0,38.5,31.8,16.1,0000.0,0012.21,0004.86,0004.22
2022-10-07 02:14:00,,0834.3,4.99,0.00,29.9,28.8,00.0,38.6,31.8,16.0,0000.0,0012.12,0004.89,0004.21
2022-10-07 02:15:00,,0834.3,5.02,0.00,29.9,28.8,00.0,38.6,31.8,16.2,0000.0,0012.17,0004.85,0004.20
2022-10-07 02:16:00,,0834.3,4.99,0.00,29.9,28.8,00.0,38.6,31.9,15.9,0000.0,0012.13,0004.81,0004.19
2022-10-07 02:17:00,,0834.3,5.00,0.00,30.0,28.8,00.0,38.6,31.9,15.9,0000.0,0011.59,0004.83,0004.19
2022-10-07 02:18:00,,0834.3,5.00,0.00,30.0,28.9,00.0,38.6,31.9,15.8,0000.0,0011.57,0004.83,0004.19
2022-10-07 02:19:00,,0834.3,5.01,0.00,30.0,28.9,00.0,38.7,31.9,15.8,-000.1,0011.56,0004.83,0004.18
2022-10-07 02:20:00,,0834.3,4.99,0.00,30.0,28.9,00.0,38.7,31.9,15.8,0000.0,0011.09,0004.83,0004.18
2022-10-07 02:21:00,,0834.4,5.01,0.00,30.0,28.9,00.0,38.7,31.9,15.8,0000.0,0012.73,0004.86,0004.19
2022-10-07 02:22:00,,0834.4,4.99,0.00,30.0,28.8,00.0,38.7,31.9,15.5,0000.0,0013.22,0004.87,0004.17
2022-10-07 02:23:00,,0834.4,5.01,0.00,30.0,27.3,00.0,38.7,31.8,15.5,0000.0,0013.06,0004.94,0004.17
2022-10-07 02:24:00,,0834.4,5.00,0.00,30.0,26.3,00.0,38.6,31.6,15.6,0000.0,0013.38,0004.96,0004.19
2022-10-07 02:25:00,,0834.4,5.01,0.00,29.9,26.4,00.0,38.6,31.5,15.4,0000.0,0013.24,0004.91,0004.19
2022-10-07 02:26:00,,0834.4,4.99,0.00,29.8,26.7,00.0,38.6,31.4,15.7,0000.0,0012.89,0004.91,0004.19
2022-10-07 02:27:00,,0834.5,4.98,0.00,29.7,27.0,00.0,38.5,31.4,15.9,0000.0,0013.73,0004.92,0004.19
2022-10-07 02:28:00,,0834.5,5.00,0.00,29.7,27.3,00.0,38.5,31.4,16.0,0000.0,0015.62,0004.97,0004.21
2022-10-07 02:29:00,,0834.4,5.00,0.00,29.7,27.6,00.0,38.5,31.4,16.0,0000.0,0016.04,0005.02,0004.23
2022-10-07 02:30:00,,0834.4,5.00,0.00,29.7,27.7,00.0,38.5,31.4,16.1,0000.0,0016.29,0005.02,0004.24
2022-10-07 02:31:00,,0834.5,4.99,0.00,29.7,27.9,00.0,38.4,31.4,15.6,0000.0,0016.63,0004.99,0004.24
2022-10-07 02:32:00,,0834.6,5.01,0.00,29.7,28.0,00.0,38.4,31.4,15.9,0000.0,0015.30,0004.95,0004.24
2022-10-07 02:33:00,,0834.5,4.99,0.00,29.7,28.2,00.0,38.4,31.5,16.2,0000.0,0015.50,0004.94,0004.24
2022-10-07 02:34:00,,0834.6,5.00,0.00,29.7,28.2,00.0,38.4,31.5,16.1,0000.0,0015.80,0004.89,0004.22
2022-10-07 02:35:00,,0834.6,4.99,0.00,29.7,28.3,00.0,38.4,31.5,15.8,0000.0,0015.95,0004.87,0004.21
2022-10-07 02:36:00,,0834.6,5.01,0.00,29.7,28.4,00.0,38.4,31.5,15.4,0000.0,0016.66,0004.86,0004.19
2022-10-07 02:37:00,,0834.5,5.00,0.00,29.7,28.4,00.0,38.4,31.6,15.5,0000.0,0016.66,0004.87,0004.17
2022-10-07 02:38:00,,0834.6,4.99,0.00,29.7,28.5,00.0,38.4,31.6,15.8,0000.0,0016.22,0004.85,0004.16
2022-10-07 02:39:00,,0834.6,5.02,0.00,29.7,28.5,00.0,38.5,31.6,15.5,0000.0,0014.73,0004.78,0004.13
2022-10-07 02:40:00,,0834.6,4.99,0.00,29.7,28.5,00.0,38.5,31.6,15.7,0000.0,0013.84,0004.71,0004.12
2022-10-07 02:41:00,,0834.6,5.01,0.00,29.8,28.6,00.0,38.5,31.7,15.8,0000.0,0013.96,0004.69,0004.11
2022-10-07 02:42:00,,0834.6,4.99,0.00,29.8,28.6,00.0,38.5,31.7,15.9,0000.0,0013.51,0004.72,0004.11
2022-10-07 02:43:00,,0834.6,5.01,0.00,29.8,28.6,00.0,38.5,31.7,15.5,0000.0,0013.41,0004.75,0004.11
2022-10-07 02:44:00,,0834.6,4.99,0.00,29.8,28.6,00.0,38.5,31.7,15.5,0000.0,0012.57,0004.73,0004.10
2022-10-07 02:45:00,,0834.6,5.01,0.00,29.8,28.6,00.0,38.5,31.8,15.4,0000.0,0012.60,0004.71,0004.11
2022-10-07 02:46:00,,0834.6,4.99,0.00,29.9,28.7,00.0,38.5,31.8,15.4,0000.0,0012.28,0004.70,0004.10
2022-10-07 02:47:00,,0834.7,5.01,0.00,29.9,28.7,00.0,38.5,31.8,15.3,0000.0,0011.08,0004.70,0004.11
2022-10-07 02:48:00,,0834.7,4.99,0.00,29.9,28.7,00.0,38.6,31.8,15.3,0000.0,0011.04,0004.71,0004.12
2022-10-07 02:49:00,,0834.7,5.00,0.00,29.9,28.7,00.0,38.6,31.8,15.4,0000.0,0010.61,0004.70,0004.12
2022-10-07 02:50:00,,0834.7,5.00,0.00,29.9,28.8,00.0,38.6,31.8,15.4,0000.0,0010.02,0004.69,0004.12
2022-10-07 02:51:00,,0834.7,4.99,0.00,30.0,28.8,00.0,38.6,31.8,15.6,0000.0,0010.01,0004.70,0004.12
2022-10-07 02:52:00,,0834.7,5.01,0.00,30.0,28.8,00.0,38.6,31.9,15.3,0000.0,0009.63,0004.72,0004.11
2022-10-07 02:53:00,,0834.7,5.00,0.00,30.0,28.8,00.0,38.7,31.9,15.3,0000.0,0009.71,0004.70,0004.09
2022-10-07 02:54:00,,0834.7,5.01,0.00,30.0,28.8,00.0,38.7,31.9,15.3,0000.0,0009.97,0004.69,0004.07
2022-10-07 02:55:00,,0834.7,4.99,0.00,30.0,28.8,00.0,38.7,31.9,15.3,0000.0,0010.14,0004.66,0004.05
2022-10-07 02:56:00,,0834.7,5.02,0.00,30.0,28.8,00.0,38.7,31.9,15.1,0000.0,0009.56,0004.62,0004.02
2022-10-07 02:57:00,,0834.7,4.98,0.00,30.0,28.9,00.0,38.7,31.9,15.1,0000.0,0009.29,0004.61,0004.01
2022-10-07 02:58:00,,0834.7,5.02,0.00,30.1,28.9,00.0,38.7,31.9,15.1,0000.0,0009.20,0004.57,0003.99
2022-10-07 02:59:00,,0834.7,4.99,0.00,30.1,28.9,00.0,38.8,32.0,15.2,0000.0,0009.40,0004.52,0003.97
